Location: Ostrava
(49.8330°N, 18.2830°E)
Time: 09:31:26
(UTC+01:00)

Vanguard 2 Rocket - Visible Passes

Search period start: 26 October 2014 00:00
Search period end: 04 November 2014 23:00
Orbit: 554 x 3335 km, 32.9° (Epoch: 24 October)

Date Brightness Start Highest point End Pass type
(mag) Time Alt. Az. Time Alt. Az. Time Alt. Az.
26 Oct 8.9 03:22:29 15° SSE 03:22:29 15° SSE 03:26:07 10° SE visible
26 Oct 9.1 05:30:21 10° SW 05:34:41 17° S 05:40:28 10° SSE visible
27 Oct 8.8 04:33:26 12° SSW 04:36:25 16° S 04:41:05 10° SE visible
28 Oct 8.8 03:38:28 14° S 03:38:28 14° S 03:41:41 10° SE visible
28 Oct 9.3 05:48:16 10° SSW 05:50:53 12° SSW 05:53:56 10° S visible
29 Oct 9.0 04:50:18 10° SSW 04:52:36 12° S 04:55:16 10° SSE visible
30 Oct 8.9 03:54:29 11° S 03:54:29 11° S 03:56:22 10° SSE visible
